Location: Castelnau
(43.6639°N, 0.8431°W)
Time: 16:50:06
(UTC+00:00)

Cosmos 1709 Rocket - Pass Details

Date: 13 January 2026
Orbit: 948 x 1000 km, 82.9° (Epoch: 10 February)

Event Time Altitude Azimuth Distance (km) Brightness Sun altitude
Rises 05:14:31 0° 200° (SSW) 3,607 6.9 -24.8°
Reaches altitude 10° 05:17:03 10° 205° (SSW) 2,664 6.1 -24.4°
Maximum altitude 05:23:00 55° 282° (WNW) 1,135 3.9 -23.3°
Drops below altitude 10° 05:29:00 10° 360° (N) 2,688 6.2 -22.2°
Sets 05:31:35 0° 5° (N) 3,642 7.0 -21.8°
